Weather History for KOWB - June, 2013

Change the Weather History Date:

Wednesday, June 26, 2013

  Actual Average Record
Temperature  
Mean Temperature 82 °F -  
Max Temperature 90 °F 89 °F 103 °F (1954)
Min Temperature 73 °F 64 °F 50 °F (1974)
Cooling Degree Days 16    
Growing Degree Days 32 (Base 50)    
Moisture  
Dew Point 75 °F    
Average Humidity 84    
Maximum Humidity 100    
Minimum Humidity 63    
Precipitation  
Precipitation 0.43 in - - ()
Sea Level Pressure  
Sea Level Pressure 29.84 in    
Wind  
Wind Speed 9 mph (SSW)    
Max Wind Speed 23 mph    
Max Gust Speed 29 mph    
Visibility 8 miles    
Events Rain , Thunderstorm    
Averages and records for this station are not official NWS values.
T = Trace of Precipitation, MM = Missing Value Source: NWS Daily Summary

Daily Weather History Graph

Daily Weather History Graph

Search for Another Location

Airport or City:

Trip Planner

Search our weather history database for the weather conditions in past years. The results will help you decide how hot, cold, wet, or windy it might be!

Date:

Astronomy

Jun. 26, 2013 Rise Set
Actual Time 5:28 AM CDT 8:14 PM CDT
Civil Twilight 4:57 AM CDT 8:45 PM CDT
Nautical Twilight 4:18 AM CDT 9:24 PM CDT
Astronomical Twilight 3:33 AM CDT 10:09 PM CDT
Moon 10:42 PM CDT (6/26) 9:15 AM CDT (6/26)
Length of Visible Light 15h 48m
Length of Day
14h 45m
Waning Gibbous, 85% of the Moon is Illuminated
Jun 26
Waning Gibbous
Jun 29
Last Quarter
Jul 8
New
Jul 15
First Quarter
Jul 22
Full

Hourly Weather History & Observations

Time (CDT) Temp. Heat Index Dew Point Humidity Pressure Visibility Wind Dir Wind Speed Gust Speed Precip Events Conditions
12:56 AM 77.9 °F - 75.9 °F 94% 29.94 in 10.0 mi SSW 5.8 mph - N/A   Clear
1:56 AM 79.0 °F - 75.9 °F 90% 29.94 in 10.0 mi South 4.6 mph - N/A   Partly Cloudy
2:56 AM 77.9 °F - 75.9 °F 94% 29.93 in 10.0 mi SSW 3.5 mph - N/A   Scattered Clouds
3:56 AM 77.9 °F - 75.9 °F 94% 29.92 in 10.0 mi South 4.6 mph - N/A   Clear
4:56 AM 75.9 °F - 74.8 °F 96% 29.93 in 10.0 mi South 5.8 mph - N/A   Clear
5:56 AM 75.9 °F - 73.9 °F 94% 29.93 in 10.0 mi South 5.8 mph - N/A   Clear
6:56 AM 77.9 °F - 73.9 °F 88% 29.93 in 10.0 mi South 8.1 mph - N/A   Clear
7:56 AM 81.9 °F 87.7 °F 73.9 °F 77% 29.94 in 10.0 mi SSW 10.4 mph - N/A   Clear
8:56 AM 84.9 °F 93.3 °F 74.8 °F 72% 29.94 in 10.0 mi SW 11.5 mph - N/A   Clear
9:56 AM 84.9 °F 93.3 °F 74.8 °F 72% 29.93 in 10.0 mi WSW 12.7 mph - N/A   Partly Cloudy
10:56 AM 84.9 °F 93.3 °F 74.8 °F 72% 29.88 in 10.0 mi SSW 16.1 mph - 0.00 in Rain Light Rain
11:56 AM 86.0 °F 94.6 °F 74.8 °F 69% 29.88 in 10.0 mi SSW 17.3 mph 25.3 mph 0.00 in   Partly Cloudy
12:56 PM 90.9 °F 104.3 °F 77.0 °F 64% 29.87 in 10.0 mi SW 18.4 mph 27.6 mph N/A   Partly Cloudy
1:56 PM 90.0 °F 101.3 °F 75.9 °F 63% 29.84 in 10.0 mi SW 23.0 mph 28.8 mph N/A   Scattered Clouds
2:56 PM 90.9 °F 104.3 °F 77.0 °F 64% 29.82 in 10.0 mi SW 20.7 mph 28.8 mph N/A   Scattered Clouds
3:56 PM 90.9 °F 104.3 °F 77.0 °F 64% 29.78 in 10.0 mi SW 16.1 mph 23.0 mph N/A   Scattered Clouds
4:56 PM 90.9 °F 104.3 °F 77.0 °F 64% 29.77 in 10.0 mi SW 16.1 mph 23.0 mph N/A   Scattered Clouds
5:56 PM 90.0 °F 101.3 °F 75.9 °F 63% 29.76 in 10.0 mi SW 13.8 mph 20.7 mph N/A   Mostly Cloudy
6:56 PM 88.0 °F 100.2 °F 77.0 °F 70% 29.73 in 10.0 mi SW 16.1 mph - N/A   Scattered Clouds
7:56 PM 86.9 °F 97.3 °F 75.9 °F 70% 29.71 in 10.0 mi SW 13.8 mph - N/A   Partly Cloudy
8:48 PM 84.2 °F 92.3 °F 75.2 °F 74% 29.77 in 10.0 mi SW 10.4 mph - N/A Thunderstorm Thunderstorm
8:56 PM 84.9 °F 93.3 °F 74.8 °F 72% 29.75 in 10.0 mi SW 9.2 mph - N/A Thunderstorm Thunderstorm
9:45 PM 75.2 °F - 73.4 °F 94% 29.83 in 1.8 mi North 9.2 mph - 0.10 in Rain , Thunderstorm Heavy Thunderstorms and Rain
9:47 PM 75.2 °F - 73.4 °F 94% 29.83 in 1.2 mi North 10.4 mph - 0.16 in Rain , Thunderstorm Heavy Thunderstorms and Rain
9:56 PM 75.9 °F - 72.9 °F 90% 29.80 in 0.8 mi Calm Calm - 0.33 in Rain , Thunderstorm Heavy Thunderstorms and Rain
10:00 PM 77.0 °F - 71.6 °F 83% 29.81 in 1.2 mi Variable 3.5 mph - 0.02 in Rain , Thunderstorm Heavy Thunderstorms and Rain
10:02 PM 77.0 °F - 73.4 °F 89% 29.81 in 2.0 mi SW 8.1 mph - 0.02 in Rain Heavy Rain
10:09 PM 75.2 °F - 75.2 °F 100% 29.81 in 10.0 mi SW 9.2 mph - 0.02 in Rain , Thunderstorm Light Thunderstorms and Rain
10:18 PM 75.2 °F - 75.2 °F 100% 29.81 in 10.0 mi WSW 9.2 mph - 0.02 in Thunderstorm Scattered Clouds
10:32 PM 75.2 °F - 75.2 °F 100% 29.82 in 1.8 mi WSW 4.6 mph - 0.10 in Rain , Thunderstorm Heavy Thunderstorms and Rain
10:41 PM 75.2 °F - 75.2 °F 100% 29.82 in 3.0 mi South 3.5 mph - 0.10 in Rain , Thunderstorm Light Thunderstorms and Rain
10:56 PM 74.8 °F - 74.8 °F 100% 29.81 in 10.0 mi South 6.9 mph - 0.10 in Thunderstorm Overcast
11:00 PM 75.2 °F - 75.2 °F 100% 29.81 in 10.0 mi South 10.4 mph - 0.00 in Rain , Thunderstorm Light Thunderstorms and Rain
11:19 PM 73.4 °F - 73.4 °F 100% 29.81 in 10.0 mi South 9.2 mph - 0.00 in   Mostly Cloudy
11:56 PM 73.9 °F - 73.9 °F 100% 29.80 in 10.0 mi South 5.8 mph - 0.00 in   Clear